RH
100 100 100 100 100 100 100 100 100 100 100 100 100 100 100 100 100 100 100 100 100 100 96 76 72 74 47 28 28 28 33 35 31 28 26 56 42 26 30 34 32 36 44 48 38 28 20
74 85 79 83 90 83 100 100 100 100 100 100 100 100 100 100 100 100 100 100 100 100 100 99 86 95 86 60 50 45 43 34 25 24 27 27 36 35 28 32 36 36 46 62 54 39 23
56 82 50 72 70 64 77 80 81 87 93 77 91 100 100 100 100 100 100 100 86 100 100 100 100 99 94 74 73 57 42 36 35 36 34 26 28 31 32 28 34 40 38 52 75 53 46
77 93 74 46 47 62 71 78 89 81 62 64 90 100 93 99 100 100 100 100 100 100 100 78 99 100 89 59 55 59 61 56 52 76 60 39 43 36 37 28 26 36 32 36 50 59 64
94 98 100 66 48 47 51 46 46 55 55 38 33 34 38 42 58 77 85 84 87 94 100 100 98 100 100 46 58 71 61 82 80 70 51 49 60 54 48 43 29 28 33 40 45 50 58
100 100 100 100 72 57 62 50 43 41 36 36 35 34 38 34 32 36 37 49 84 63 42 83 99 100 100 42 59 85 91 76 61 51 46 45 53 83 58 51 38 30 30 37 47 48 54
100 100 100 100 85 100 66 57 51 42 42 46 53 50 45 47 50 39 31 34 54 46 42 64 76 94 53 58 73 91 85 84 100 77 71 56 60 89 83 63 46 37 34 35 39 53 53
100 100 100 100 100 100 100 87 74 62 63 60 62 62 59 56 45 46 46 50 56 75 70 74 98 64 66 53 75 96 92 81 97 99 84 82 67 97 58 72 54 46 31 32 40 49 61
100 100 100 100 100 100 100 100 100 100 91 83 73 67 61 55 51 44 48 48 74 100 100 98 100 100 100 100 100 100 100 100 100 71 66 83 84 90 66 59 93 59 49 34 33 42 44
100 100 100 100 100 100 100 100 100 100 100 100 97 73 55 55 56 52 54 63 80 65 91 100 100 100 100 100 100 100 63 100 98 92 81 80 86 100 89 72 70 96 76 46 34 34 48
78 81 100 100 100 100 100 100 100 100 100 100 97 98 99 86 72 81 87 86 83 61 44 76 100 80 66 90 52 72 61 56 53 36 62 92 96 90 100 93 73 64 84 60 47 39 39
90 68 94 86 90 100 100 100 100 100 100 85 98 76 43 62 78 95 98 100 75 81 74 98 90 81 71 62 74 88 99 100 59 50 41 47 58 100 100 100 78 88 40 38 45 43 42
77 84 80 100 100 100 100 70 98 100 100 100 98 98 93 54 80 94 88 66 85 95 100 64 77 69 70 90 60 68 56 64 78 69 76 63 68 55 68 73 69 86 57 42 43 50 44
100 92 100 100 94 96 87 97 84 92 94 94 85 92 90 92 100 100 99 100 99 100 87 74 45 57 79 91 84 50 31 77 76 82 82 90 91 94 81 87 59 64 80 45 46 52 49
68 86 99 100 85 61 60 70 66 66 70 46 46 63 79 93 100 100 96 79 90 97 72 74 70 59 86 100 100 77 63 40 99 96 84 80 81 97 100 79 69 72 84 66 61 49 44
59 42 43 72 100 100 85 99 100 100 98 92 100 100 100 100 100 100 100 100 87 97 84 80 100 86 96 92 100 79 79 46 84 85 79 100 84 93 98 96 74 72 74 86 73 66 56
89 49 40 94 51 84 79 62 93 100 100 100 100 100 100 100 100 100 100 100 100 84 79 96 81 66 92 98 88 89 90 74 74 100 88 93 88 100 100 85 79 70 64 82 73 75 58
76 85 80 80 100 97 100 99 53 100 98 99 100 98 75 94 100 100 93 100 89 80 85 100 100 100 100 80 90 100 100 100 100 100 98 91 94 100 100 90 89 78 76 87 85 84 67
71 83 84 94 100 81 91 99 99 100 100 100 96 98 100 100 90 100 100 100 100 100 100 100 100 100 96 83 93 100 100 100 100 100 100 94 94 100 100 83 74 81 76 92 94 81 70
86 80 77 82 86 90 84 78 78 82 76 70 69 65 80 87 96 100 100 100 100 100 100 100 98 92 90 100 100 100 100 100 100 100 100 100 100 100 95 98 96 78 100 97 98 72 60
100 100 100 95 95 96 90 99 90 82 80 97 100 75 87 95 98 79 73 77 88 77 96 100 76 92 100 86 97 100 100 100 100 100 100 100 100 98 100 99 80 100 100 100 100 79 73
100 100 100 100 100 100 100 100 100 100 100 86 92 100 93 77 100 100 96 100 100 100 100 100 100 75 93 100 100 100 100 100 100 100 100 100 100 100 100 100 100 100 100 100 100 90 91
100 100 100 100 100 100 100 100 100 100 100 100 100 99 100 100 100 100 100 100 100 100 100 95 86 97 100 100 97 95 100 100 100 100 100 99 100 100 100 100 100 100 100 100 95 84 90
100 100 100 100 100 100 100 100 100 100 100 100 100 100 100 100 100 100 100 98 90 100 100 100 100 99 100 82 65 92 91 74 64 77 74 57 96 98 100 100 99 98 95 94 91 91 94
100 100 100 100 100 100 100 100 100 100 100 100 93 100 100 100 100 100 99 94 100 100 100 100 100 98 76 42 50 48 41 37 58 54 60 61 79 89 93 93 78 85 90 96 88 95 100
97 100 89 100 100 100 100 100 100 100 100 100 98 98 89 100 92 100 96 89 97 99 98 64 83 47 39 36 36 42 41 25 29 35 46 66 82 88 100 98 92 84 100 100 92 90 100
63 80 95 98 100 100 99 100 100 73 76 80 67 75 57 53 42 35 48 62 54 42 36 44 37 38 37 40 43 35 17 18 22 30 47 66 84 83 86 78 80 93 100 91 92 100 100
22 42 53 50 72 60 68 55 39 41 33 23 17 16 17 19 19 21 22 25 27 28 23 28 30 36 36 28 17 17 18 18 22 36 67 83 82 93 93 87 77 98 98 92 100 100 81
17 18 18 18 17 17 18 16 14 14 14 15 15 15 15 18 18 17 18 18 19 19 23 20 18 18 17 17 16 17 18 25 36 64 84 95 93 97 93 77 85 88 99 98 97 68 46
Wind_Speed
30 31 29 24 28 27 25 26 22 24 28 31 31 36 35 33 36 35 42 44 46 38 32 31 28 29 32 33 34 38 41 46 48 48 50 56 56 56 58 56 54 50 47 47 50 58 56
27 31 31 30 31 28 34 34 35 34 35 37 34 37 40 40 39 39 41 39 39 42 40 37 35 31 35 36 37 39 42 48 48 50 52 54 54 57 62 60 57 51 46 45 45 49 53
32 33 32 31 31 29 31 29 30 32 32 25 29 33 40 35 42 42 35 29 30 39 46 39 35 36 40 41 39 42 43 44 47 53 58 60 55 58 63 61 59 57 49 48 45 47 50
39 41 36 32 30 32 31 30 36 32 30 30 34 36 35 36 36 42 41 40 41 37 38 40 40 39 43 41 39 42 45 46 49 56 57 58 61 62 61 66 60 60 57 55 50 45 46
43 47 46 42 38 31 30 31 27 27 26 26 24 28 27 30 30 32 35 36 40 42 40 45 46 43 42 42 43 46 48 49 53 55 57 59 62 60 61 65 65 61 59 59 50 55 46
45 47 54 47 43 40 34 33 28 30 29 28 28 26 29 28 31 31 29 32 33 35 37 41 46 41 45 44 46 49 53 52 55 57 58 59 62 64 62 62 64 66 62 57 59 54 48
53 55 58 47 46 47 43 39 38 37 35 36 35 33 36 35 34 34 33 34 33 35 39 39 37 40 50 49 50 53 56 56 57 60 61 61 64 65 63 60 62 68 64 58 58 59 48
51 54 55 54 52 53 52 48 45 46 44 46 44 45 45 45 42 39 39 42 43 43 44 43 44 47 48 51 53 55 57 58 59 60 65 66 66 66 71 66 67 68 67 64 54 58 62
57 55 55 58 58 58 56 55 55 54 52 51 50 49 51 44 43 45 47 45 48 48 48 47 50 54 53 55 55 58 58 60 61 61 64 66 68 68 70 74 67 69 73 68 59 59 62
62 61 59 58 58 59 60 59 57 57 59 57 57 55 51 51 51 49 48 52 57 55 48 50 54 57 57 58 58 58 60 63 65 66 63 64 69 69 73 77 74 72 72 70 68 64 61
67 67 67 65 63 61 57 59 62 61 62 61 60 61 62 60 58 54 57 57 59 55 49 53 56 56 59 62 59 59 63 63 64 65 66 67 70 73 75 78 77 75 73 72 67 67 59
67 72 73 72 70 70 69 68 66 66 67 69 65 61 64 64 65 62 63 62 66 63 59 62 62 62 65 62 66 68 67 67 69 68 66 67 69 71 75 80 79 73 74 69 65 67 59
75 69 76 76 77 75 74 76 74 71 72 72 73 71 74 69 69 71 70 69 67 65 68 71 73 66 64 67 76 77 72 72 72 72 72 75 73 71 75 79 78 76 74 66 65 65 61
77 74 73 73 77 79 79 80 81 80 80 79 76 76 75 73 75 75 78 80 73 71 70 71 73 73 70 73 78 75 77 77 74 74 77 78 77 78 79 77 76 73 71 67 69 62 67
78 80 77 79 78 78 76 74 80 80 80 80 80 79 78 81 80 82 84 77 80 82 79 79 78 74 78 85 84 80 81 78 81 79 83 80 77 82 80 77 73 72 71 69 68 74 69
95 93 88 87 85 88 85 85 82 81 85 84 84 83 84 87 86 87 87 87 82 86 85 83 81 82 84 86 86 86 86 79 82 85 85 87 84 83 81 79 80 75 75 71 69 68 71
92 93 92 92 93 91 91 87 89 86 87 88 88 87 92 92 90 94 98 91 89 89 88 87 87 92 85 86 88 88 88 87 90 87 86 88 86 87 81 82 76 77 76 70 72 68 73
90 86 89 92 92 95 91 93 91 93 94 95 99 101 98 97 97 98 96 95 95 100 96 95 96 94 97 95 94 91 94 91 94 90 96 88 86 85 82 82 74 70 72 71 73 70 75
102 97 96 95 98 96 96 100 96 96 100 101 103 105 104 100 102 99 96 103 101 100 103 103 100 100 102 99 103 104 103 104 100 106 97 91 90 86 81 86 78 75 71 72 71 77 74
109 104 104 106 100 103 100 97 95 92 101 100 104 107 105 104 105 102 107 109 105 106 107 108 107 106 104 106 111 110 109 107 107 104 105 95 92 86 87 80 74 79 72 70 69 79 80
116 113 112 110 106 106 108 106 104 107 109 112 112 107 109 110 109 112 108 104 106 113 112 113 116 117 117 116 120 110 116 117 109 106 110 105 92 91 87 81 81 72 71 77 73 84 77
125 122 120 117 113 112 111 115 114 118 115 115 119 115 113 115 116 113 114 115 114 116 113 115 119 114 116 120 123 125 118 124 119 108 101 98 99 96 86 86 89 73 78 81 92 88 84
127 126 127 126 119 119 120 120 120 118 122 124 121 119 118 120 122 123 123 123 119 123 125 127 125 125 127 131 133 127 118 112 113 109 101 99 97 94 96 98 97 83 83 85 82 82 85
128 128 129 131 127 126 126 127 126 126 125 124 125 128 128 129 128 125 128 127 127 131 131 133 134 136 126 123 108 105 106 101 98 95 91 89 87 94 88 87 87 86 87 83 81 83 80
131 128 127 127 126 125 129 133 133 130 125 125 124 129 130 128 130 129 129 130 131 129 129 129 132 124 116 109 97 92 94 91 91 85 84 84 82 79 79 80 82 81 78 78 82 79 79
122 121 123 121 123 125 129 131 134 131 126 128 125 127 126 128 125 128 126 121 122 125 124 114 111 106 98 94 88 83 85 80 78 78 77 76 76 77 79 78 77 73 78 78 78 75 77
117 117 119 119 117 118 119 121 121 120 116 117 116 113 115 119 119 115 112 112 110 105 98 99 98 91 88 85 81 77 74 77 76 76 76 74 75 77 79 77 73 74 78 78 78 79 76
101 103 109 109 110 111 111 109 110 106 103 105 101 100 100 98 92 92 91 90 89 86 83 81 80 77 78 74 73 74 75 79 77 74 72 74 76 78 79 77 72 76 79 79 77 74 74
89 89 90 90 88 87 88 90 89 85 83 84 83 81 77 76 75 74 71 69 68 68 66 66 67 69 71 73 73 74 77 76 73 70 71 72 74 75 77 76 78 76 76 76 76 75 74
Wind_Direction
300 297 294 288 292 299 301 303 306 308 312 322 321 326 327 328 330 330 331 333 332 326 337 335 338 337 341 340 343 347 349 349 347 349 351 352 354 355 353 353 348 343 342 344 342 341 342
296 300 295 298 298 294 300 307 308 307 307 309 314 317 318 318 318 314 322 318 319 325 323 323 325 328 339 335 335 340 343 348 348 349 350 353 356 354 353 353 355 349 350 354 354 348 341
285 291 292 289 288 284 296 301 303 303 305 304 306 311 314 319 319 321 321 309 307 317 315 311 313 318 327 334 329 335 339 342 347 345 344 348 349 354 354 351 351 354 351 356 4 7 356
279 285 288 288 287 288 290 293 298 301 297 296 309 308 309 309 306 313 310 312 306 315 303 305 306 309 319 327 331 334 335 336 335 337 337 339 345 346 351 353 353 356 355 351 354 3 9
271 275 280 283 283 280 286 288 284 288 298 302 306 308 307 308 307 310 308 305 309 306 302 304 304 305 310 322 329 331 334 334 333 335 336 338 336 341 345 347 348 352 354 358 352 353 2
270 268 277 275 278 279 281 283 281 279 286 289 295 297 306 306 309 312 315 319 312 317 314 306 309 307 308 320 326 326 327 327 330 330 334 335 337 335 338 342 345 348 350 349 355 353 1
268 271 268 272 273 277 277 278 279 278 279 283 286 288 288 295 294 299 304 305 312 313 317 312 304 306 311 318 317 322 323 325 325 326 328 333 333 332 336 338 341 342 349 351 351 355 6
265 268 270 270 272 276 277 277 278 279 280 281 282 284 285 285 287 291 295 298 305 307 307 310 305 308 311 314 313 316 318 321 324 324 325 324 327 332 334 332 334 336 341 348 343 351 355
268 269 268 270 273 273 273 275 278 278 278 278 282 281 281 284 287 295 298 299 299 299 302 301 302 304 304 309 313 317 314 317 317 320 320 322 324 325 331 332 329 331 335 340 343 342 344
270 269 269 272 273 272 273 274 274 275 278 280 282 279 280 281 283 285 290 296 299 298 296 295 298 301 303 306 307 310 312 311 311 312 317 322 321 319 326 329 327 326 328 333 338 338 337
267 269 268 269 271 273 275 274 274 276 277 278 280 283 282 279 281 280 286 291 295 295 293 292 291 293 297 296 299 302 302 307 309 312 314 314 318 317 318 326 325 325 324 326 329 336 335
272 271 269 269 268 269 271 272 273 276 276 277 279 283 286 287 289 287 288 291 294 293 297 294 292 289 295 299 303 301 299 299 305 306 308 313 315 315 316 318 321 320 325 323 329 331 330
274 270 270 268 271 271 270 271 272 275 276 277 280 279 282 284 282 283 284 291 290 295 291 294 291 294 294 296 303 301 299 296 301 305 303 306 311 312 313 315 316 316 320 321 327 326 330
268 268 269 268 269 271 272 271 271 274 275 275 278 280 280 280 280 281 285 287 291 290 289 289 289 289 292 294 300 303 306 303 298 301 303 305 305 308 306 311 313 312 315 316 325 319 324
262 266 265 268 268 269 270 272 271 274 273 275 277 280 283 282 280 283 285 287 286 292 297 292 293 295 296 294 294 296 302 300 300 300 300 299 305 305 303 308 311 311 313 311 319 319 323
263 262 264 266 268 268 269 272 271 274 275 276 278 280 283 283 282 286 286 288 288 290 293 294 292 295 296 292 291 295 296 298 298 300 301 299 299 301 301 304 309 308 310 304 310 317 323
270 267 262 260 264 264 265 267 268 270 274 273 275 275 281 282 281 283 288 290 286 291 288 289 290 293 294 291 289 294 297 297 295 299 301 297 296 299 299 304 304 309 308 304 306 310 319
265 264 271 261 264 265 263 268 264 269 272 270 269 273 274 274 277 280 286 285 286 290 288 288 289 291 294 295 293 293 296 295 298 299 304 298 294 296 298 300 300 303 304 304 303 306 311
271 265 265 266 264 268 267 268 265 265 268 269 270 272 274 276 277 280 280 283 285 285 285 289 289 290 291 291 292 293 293 294 296 300 301 297 296 295 299 300 300 300 304 298 299 305 306
267 267 272 268 269 268 271 270 264 267 269 269 275 274 272 272 276 278 278 280 284 285 287 288 287 290 288 289 292 292 293 295 295 298 297 294 298 290 294 295 296 300 296 298 295 303 307
263 261 260 263 265 266 268 267 267 267 268 268 271 274 276 274 272 275 275 277 279 283 284 286 288 289 290 291 293 292 290 293 293 294 294 296 292 292 291 293 300 293 292 299 300 301 307
261 260 261 261 260 264 262 264 264 265 266 269 269 272 271 274 276 275 277 278 278 280 279 281 283 285 284 284 286 289 286 288 291 292 292 291 289 287 290 291 295 297 296 297 302 306 305
260 258 259 260 261 263 263 265 264 265 267 268 269 270 272 273 273 273 276 276 281 282 282 282 283 284 285 286 286 289 285 285 285 285 283 286 284 282 285 289 292 297 294 299 301 300 302
259 260 258 260 260 262 263 263 264 265 265 268 268 270 269 271 273 277 278 278 279 281 282 284 286 287 288 288 286 286 285 285 285 283 286 286 286 283 286 289 293 293 296 298 298 298 302
257 257 258 258 259 261 260 262 263 266 266 268 267 270 270 272 274 276 277 278 279 280 281 283 283 287 284 282 284 284 286 284 286 285 284 284 285 284 286 287 289 292 293 294 296 297 299
257 256 257 259 260 259 260 261 263 265 266 270 271 271 272 276 276 278 278 277 278 280 281 281 280 282 282 283 283 283 284 285 285 285 284 283 282 282 282 285 288 290 292 292 293 298 295
256 257 259 259 261 262 262 263 265 266 269 270 269 272 274 273 274 273 274 275 276 278 278 277 278 279 281 282 282 281 282 285 285 284 283 281 280 281 284 284 287 288 286 290 294 293 294
255 256 258 259 260 261 262 264 266 266 267 268 270 270 270 270 271 272 272 273 273 274 274 275 275 276 277 278 279 282 284 285 284 282 279 279 279 279 282 282 284 284 288 290 290 288 290
253 255 256 257 259 260 261 263 264 266 267 268 268 268 268 268 268 268 269 271 273 272 271 272 274 274 277 279 281 283 285 284 282 281 278 278 279 279 281 282 283 286 287 286 285 286 286